GW5759 Weather Reports


time (UTC)temp
C
wind
direction
speed
KPH
gust
KPH
rain 1hr
cm
rain 24hr
cm
rain mn
cm
humidity
%
barometer
mb
20260508034503 8 345 0.0 1.6 0.00 0.00 0.00 91 1016.8
20260508033603 8 341 0.0 1.6 0.00 0.00 0.00 91 1016.7
20260508032918 8 338 0.0 1.6 0.00 0.00 0.00 91 1016.6
20260508031803 8 309 0.0 1.6 0.00 0.00 0.00 91 1016.2
20260508031116 8 0 0.0 0.0 0.00 0.00 0.00 91 1016.3
20260508030004 8 345 0.0 1.6 0.00 0.00 0.00 91 1016.3
20260508025619 8 345 0.0 1.6 0.00 0.00 0.00 91 1016.0
20260508024719 8 5 0.0 1.6 0.00 0.00 0.00 91 1016.1
20260508023603 8 14 0.0 1.6 0.00 0.00 0.00 91 1016.2
20260508022703 8 343 0.0 1.6 0.00 0.00 0.00 91 1016.2
20260508021803 8 342 0.0 1.6 0.00 0.03 0.00 91 1016.0
20260508020903 8 339 0.0 1.6 0.00 0.05 0.00 90 1016.1
20260508020003 8 353 0.0 3.2 0.00 0.05 0.00 90 1016.1
20260508015403 8 332 1.6 3.2 0.00 0.05 0.00 90 1016.0
20260508014718 8 322 0.0 3.2 0.00 0.05 0.00 90 1016.0
20260508013603 8 328 0.0 1.6 0.00 0.08 0.00 91 1015.8
20260508012704 8 1 0.0 1.6 0.00 0.08 0.00 91 1016.1
20260508011804 8 11 0.0 1.6 0.00 0.08 0.00 90 1016.0
20260508010903 8 360 0.0 1.6 0.00 0.08 0.00 90 1016.2
20260508010219 8 337 0.0 1.6 0.00 0.08 0.00 90 1016.0
20260508005403 8 352 0.0 1.6 0.00 0.10 0.00 90 1016.0
20260508004503 8 338 0.0 3.2 0.00 0.13 0.00 90 1016.0
20260508003603 8 328 0.0 3.2 0.00 0.15 0.00 90 1015.9
20260508002703 8 331 1.6 4.8 0.00 0.23 0.00 90 1016.0
20260508001803 8 346 0.0 1.6 0.00 0.28 0.00 90 1015.9
20260508000903 9 344 0.0 1.6 0.00 0.30 0.00 90 1016.3
20260508000003 9 355 0.0 1.6 0.00 0.33 0.00 90 1016.2
20260507235403 9 360 0.0 1.6 0.00 0.33 0.00 91 1016.1
20260507234503 9 350 0.0 1.6 0.00 0.38 0.00 91 1016.1
20260507233603 9 358 0.0 1.6 0.00 0.48 0.00 91 1015.9
20260507232703 9 332 0.0 3.2 0.00 0.56 0.00 91 1016.0
20260507231803 9 345 0.0 3.2 0.00 0.58 0.00 91 1016.0
20260507230903 9 348 1.6 4.8 0.00 0.58 0.00 91 1015.9
20260507230218 9 354 0.0 3.2 0.00 0.61 0.00 91 1015.9
20260507225403 9 355 0.0 1.6 0.00 0.61 0.00 91 1016.1
20260507224504 9 342 0.0 3.2 0.00 0.69 0.00 91 1016.3
20260507223603 9 338 0.0 1.6 0.00 0.71 0.00 91 1016.0
20260507222703 9 333 0.0 3.2 0.00 0.71 0.00 91 1016.1
20260507221803 9 313 0.0 3.2 0.00 0.74 0.00 91 1015.8
20260507220903 9 328 0.0 1.6 0.00 0.74 0.00 91 1015.8
20260507220004 9 336 0.0 1.6 0.00 0.81 0.00 91 1016.0
20260507215404 9 5 0.0 3.2 0.00 0.81 0.81 91 1015.8
20260507214503 9 341 0.0 4.8 0.00 0.81 0.81 91 1015.8
20260507213603 9 330 1.6 4.8 0.00 0.84 0.81 91 1015.8
20260507212919 9 355 0.0 1.6 0.00 0.86 0.81 91 1015.7
20260507211803 9 335 0.0 1.6 0.00 0.89 0.81 90 1015.7
20260507210903 9 0 0.0 0.0 0.00 0.91 0.81 90 1015.8
20260507210004 9 0 0.0 0.0 0.00 0.91 0.81 90 1015.6
20260507205403 9 0 0.0 0.0 0.00 0.91 0.81 90 1015.7
20260507204503 9 356 0.0 1.6 0.00 1.02 0.81 90 1015.6
20260507203603 9 11 0.0 1.6 0.00 1.09 0.81 90 1015.7
20260507202703 9 0 0.0 0.0 0.00 1.14 0.81 90 1015.5
20260507202018 9 336 0.0 1.6 0.00 1.17 0.81 90 1015.4
20260507200903 10 339 0.0 3.2 0.00 1.27 0.81 90 1015.3
20260507200003 10 350 0.0 1.6 0.00 1.30 0.81 90 1015.4
20260507195403 10 12 0.0 3.2 0.00 1.32 0.81 90 1015.2
20260507194503 10 345 0.0 3.2 0.00 1.40 0.81 90 1014.7
20260507193603 10 39 0.0 1.6 0.00 1.42 0.81 90 1015.1
20260507192703 10 7 0.0 1.6 0.00 1.42 0.81 90 1015.1
20260507191803 10 352 0.0 1.6 0.00 1.42 0.81 90 1014.8
20260507190903 10 359 0.0 3.2 0.00 1.47 0.81 90 1014.8
20260507190004 10 336 0.0 1.6 0.00 1.47 0.81 90 1014.6
20260507185403 10 318 1.6 4.8 0.00 1.52 0.81 90 1014.6
20260507184504 10 329 0.0 3.2 0.00 1.57 0.81 90 1014.4
20260507183603 10 16 0.0 3.2 0.00 1.65 0.81 90 1014.1
20260507182703 10 330 0.0 4.8 0.00 1.75 0.81 90 1014.2
20260507182018 10 323 1.6 3.2 0.00 1.80 0.81 90 1014.1
20260507180903 10 337 0.0 3.2 0.00 2.29 0.81 90 1013.9
20260507180004 10 339 1.6 6.4 0.00 2.41 0.81 90 1013.9
20260507175404 10 332 1.6 6.4 0.00 2.41 0.81 90 1013.7
20260507174719 10 333 1.6 6.4 0.00 2.41 0.81 90 1013.5
20260507173818 10 328 0.0 3.2 0.00 2.41 0.81 90 1013.8
20260507172703 10 332 1.6 6.4 0.00 2.41 0.81 90 1013.7
20260507171804 10 355 1.6 3.2 0.00 2.41 0.81 89 1013.6
20260507170903 10 331 1.6 3.2 0.00 2.41 0.81 89 1013.5
20260507170003 10 325 1.6 6.4 0.00 2.44 0.81 88 1013.4
20260507165619 10 312 1.6 6.4 0.00 2.44 0.81 89 1013.6
20260507164503 10 321 1.6 6.4 0.00 2.44 0.81 89 1013.1
20260507163604 10 339 1.6 6.4 0.00 2.44 0.81 89 1013.2
20260507162703 11 5 1.6 4.8 0.00 2.44 0.81 89 1012.8
20260507160004 11 317 1.6 9.7 0.00 2.44 0.81 90 1012.3
20260507155403 11 344 1.6 3.2 0.00 2.44 0.81 90 1012.5
20260507154503 11 326 1.6 4.8 0.00 2.44 0.81 90 1012.4
20260507153603 11 332 1.6 6.4 0.00 2.44 0.81 90 1012.3
20260507152704 11 330 1.6 6.4 0.00 2.44 0.81 90 1012.3
20260507151803 11 337 3.2 6.4 0.00 2.44 0.81 90 1012.3
20260507150903 11 325 3.2 9.7 0.00 2.44 0.81 90 1012.2
20260507150005 11 338 3.2 6.4 0.00 2.44 0.81 89 1012.2
20260507144504 12 324 4.8 6.4 0.00 2.44 0.81 89 1012.0
20260507142917 12 317 3.2 6.4 0.00 2.44 0.81 89 1011.9
20260507142016 12 352 3.2 9.7 0.00 2.44 0.81 89 1011.9
20260507140904 12 318 1.6 3.2 0.00 2.44 0.81 89 1012.0
20260507140004 12 340 3.2 9.7 0.00 2.44 0.81 89 1012.1
20260507135403 12 316 3.2 9.7 0.00 2.44 0.81 89 1012.0
20260507134503 12 327 3.2 9.7 0.00 2.44 0.81 88 1012.1
20260507133604 13 316 1.6 4.8 0.00 2.44 0.81 88 1012.1
20260507132916 13 334 3.2 6.4 0.00 2.44 0.81 88 1011.8
20260507132020 13 326 1.6 4.8 0.00 2.44 0.81 87 1011.7
20260507130903 13 356 1.6 9.7 0.00 2.44 0.81 88 1011.6
20260507130004 13 349 1.6 4.8 0.00 2.44 0.81 88 1011.8
20260507125403 13 336 1.6 3.2 0.00 2.44 0.81 88 1011.8
20260507124503 13 322 1.6 4.8 0.00 2.44 0.81 88 1011.7
20260507123603 12 336 1.6 6.4 0.00 2.44 0.81 89 1011.7
20260507122705 12 335 1.6 3.2 0.00 2.44 0.81 89 1011.6
20260507122019 13 319 1.6 3.2 0.00 2.44 0.81 89 1011.7
20260507115403 12 348 1.6 4.8 0.00 2.44 0.81 90 1011.5
20260507114504 12 334 1.6 4.8 0.00 2.44 0.81 90 1011.3
20260507111803 12 311 3.2 6.4 0.00 2.44 0.81 91 1011.3
20260507111118 12 322 3.2 6.4 0.00 2.44 0.81 91 1011.2
20260507110004 12 346 3.2 6.4 0.00 2.44 0.81 91 1010.9
20260507105403 12 317 3.2 9.7 0.00 2.44 0.81 91 1011.0
20260507104504 12 342 3.2 6.4 0.00 2.44 0.81 91 1010.9
20260507103603 13 329 4.8 9.7 0.00 2.44 0.81 90 1010.7
20260507102703 13 340 3.2 9.7 0.00 2.44 0.81 90 1010.7
20260507101803 13 324 3.2 9.7 0.00 2.44 0.81 91 1010.7
20260507100903 13 331 3.2 6.4 0.00 2.44 0.81 90 1010.6
20260507100004 13 341 3.2 4.8 0.00 2.44 0.81 90 1010.6
20260507095617 13 342 1.6 6.4 0.00 2.44 0.81 90 1010.7
20260507094503 14 327 1.6 6.4 0.00 2.44 0.81 91 1010.3
20260507093604 13 306 1.6 6.4 0.00 2.44 0.81 93 1010.2
20260507092705 13 325 1.6 6.4 0.00 2.44 0.81 94 1010.1
20260507091803 14 333 0.0 1.6 0.00 2.44 0.81 96 1009.8
20260507090903 14 293 0.0 1.6 0.00 2.44 0.81 97 1010.0
20260507090217 13 359 0.0 1.6 0.00 2.44 0.81 97 1010.0
20260507085403 13 335 0.0 1.6 0.00 2.44 0.81 97 1009.8
20260507084716 13 346 0.0 1.6 0.00 2.44 0.81 97 1009.8
20260507083603 12 338 1.6 4.8 0.00 2.44 0.81 97 1009.7
20260507082703 13 360 0.0 3.2 0.00 2.44 0.81 97 1009.6
20260507081803 12 335 0.0 3.2 0.00 2.44 0.81 97 1009.6
20260507080903 12 338 1.6 4.8 0.00 2.44 0.81 97 1009.5
20260507080216 12 346 0.0 1.6 0.00 2.44 0.81 97 1009.4
20260507075620 13 0 0.0 0.0 0.00 2.44 0.81 97 1009.4
20260507074503 12 24 0.0 1.6 0.00 2.44 0.81 97 1009.0
20260507073819 12 0 0.0 0.0 0.00 2.44 0.81 97 1009.2
20260507070007 11 6 1.6 3.2 0.00 2.44 0.81 97 1008.6
20260507064504 11 82 1.6 6.4 0.00 2.44 0.81 97 1008.9
20260507063603 11 22 0.0 1.6 0.00 2.44 0.81 97 1008.7
20260507062703 11 358 0.0 3.2 0.00 2.44 0.81 97 1008.9
20260507060004 11 341 1.6 3.2 0.00 2.44 0.81 97 1008.5
20260507055403 12 345 1.6 3.2 0.00 2.44 0.81 97 1008.3
20260507054719 12 337 0.0 1.6 0.00 2.44 0.81 97 1008.1
20260507053603 12 352 0.0 3.2 0.00 2.44 0.81 97 1008.0
20260507052703 11 323 1.6 3.2 0.00 2.44 0.81 97 1008.0
20260507051120 12 328 0.0 1.6 0.00 2.44 0.81 97 1008.0
20260507050003 12 329 3.2 6.4 0.00 2.44 0.81 97 1007.8
20260507045403 12 341 3.2 4.8 0.00 2.44 0.81 97 1007.7
20260507044718 12 341 1.6 4.8 0.00 2.44 0.81 97 1007.7
20260507043603 12 343 1.6 3.2 0.00 2.44 0.81 97 1007.7
20260507042703 12 302 1.6 9.7 0.00 2.44 0.81 97 1007.6
20260507041803 13 248 0.0 1.6 0.00 2.44 0.81 97 1007.3
20260507041120 13 0 0.0 0.0 0.00 2.44 0.81 97 1007.4
20260507035403 13 0 0.0 0.0 0.00 2.44 0.81 97 1007.3